FW1829 Weather Reports


time (UTC)temp
C
wind
direction
speed
KPH
gust
KPH
rain 1hr
cm
rain 24hr
cm
rain mn
cm
humidity
%
barometer
mb
20260507124546 4 85 8.0 19.3 0.00 0.00 0.00 89 1022.6
20260507123102 3 131 6.4 14.5 0.00 0.00 0.00 89 1022.7
20260507121546 2 150 8.0 16.1 0.00 0.00 0.00 89 1022.5
20260507120043 2 157 6.4 14.5 0.00 0.00 0.00 89 1022.6
20260507114542 2 159 6.4 12.9 0.00 0.00 0.00 88 1022.6
20260507113041 3 161 6.4 14.5 0.00 0.00 0.00 89 1022.6
20260507111540 2 170 8.0 11.3 0.00 0.00 0.00 89 1022.9
20260507110039 2 172 6.4 9.7 0.00 0.00 0.00 89 1022.7
20260507104539 2 173 0.0 8.0 0.00 0.00 0.00 88 1022.7
20260507103037 2 173 1.6 6.4 0.00 0.00 0.00 88 1022.9
20260507101535 2 173 6.4 9.7 0.00 0.00 0.00 88 1023.1
20260507100037 3 173 6.4 12.9 0.00 0.00 0.00 88 1023.3
20260507094526 3 177 6.4 11.3 0.00 0.00 0.00 88 1023.3
20260507093025 3 178 3.2 14.5 0.00 0.00 0.00 88 1023.4
20260507091524 3 190 6.4 12.9 0.00 0.00 0.00 89 1023.6
20260507090020 3 194 1.6 6.4 0.00 0.00 0.00 89 1023.8
20260507084518 3 194 0.0 4.8 0.00 0.00 0.00 88 1023.9
20260507083017 3 194 3.2 8.0 0.00 0.00 0.00 88 1024.0
20260507081516 3 196 8.0 11.3 0.00 0.00 0.00 88 1024.1
20260507080011 3 198 4.8 9.7 0.00 0.00 0.00 88 1024.1
20260507074510 3 198 3.2 8.0 0.00 0.00 0.00 88 1024.3
20260507073008 3 198 1.6 8.0 0.00 0.00 0.00 88 1024.5
20260507071504 4 198 4.8 8.0 0.00 0.00 0.00 87 1024.6
20260507070106 4 198 4.8 8.0 0.00 0.00 0.00 87 1025.0
20260507064631 5 198 0.0 4.8 0.00 0.00 0.00 86 1025.1
20260507063107 5 198 6.4 9.7 0.00 0.00 0.00 87 1025.1
20260507061552 6 198 3.2 9.7 0.00 0.00 0.00 87 1025.1
20260507060109 6 198 6.4 11.3 0.00 0.00 0.00 86 1025.2
20260507054551 6 198 1.6 4.8 0.00 0.03 0.00 87 1025.2
20260507053043 7 198 0.0 4.8 0.00 0.03 0.00 87 1025.2
20260507051558 7 199 3.2 8.0 0.00 0.03 0.00 87 1025.3
20260507050045 7 198 3.2 6.4 0.00 0.03 0.00 87 1025.4
20260507044539 6 199 4.8 11.3 0.00 0.03 0.03 87 1025.6
20260507043041 5 201 3.2 8.0 0.00 0.03 0.03 86 1025.6
20260507041537 5 201 1.6 6.4 0.00 0.03 0.03 85 1025.6
20260507040035 5 201 3.2 8.0 0.00 0.03 0.03 84 1025.6
20260507034535 6 201 1.6 4.8 0.00 0.03 0.03 83 1025.5
20260507033034 6 201 3.2 6.4 0.00 0.03 0.03 82 1025.5
20260507031534 7 201 3.2 8.0 0.00 0.03 0.03 81 1025.2
20260507030034 7 201 3.2 6.4 0.00 0.03 0.03 80 1025.0
20260507024529 8 201 1.6 4.8 0.00 0.03 0.03 79 1024.6
20260507023028 8 201 0.0 0.0 0.00 0.03 0.03 77 1024.5
20260507021528 8 201 0.0 0.0 0.00 0.03 0.03 77 1024.4
20260507020029 9 201 0.0 0.0 0.00 0.03 0.03 75 1024.4
20260507014527 9 201 0.0 3.2 0.00 0.03 0.03 74 1024.5
20260507013027 9 201 0.0 3.2 0.00 0.03 0.03 73 1024.3
20260507011526 10 201 0.0 0.0 0.00 0.03 0.03 72 1024.2
20260507010033 10 201 0.0 0.0 0.00 0.03 0.03 71 1023.8
20260507004526 10 201 0.0 3.2 0.00 0.03 0.03 69 1023.9
20260507003023 10 201 0.0 1.6 0.00 0.03 0.03 67 1023.9
20260507001523 10 201 0.0 0.0 0.00 0.03 0.03 65 1023.8
20260507000022 10 201 0.0 0.0 0.00 0.03 0.03 66 1023.8
20260506234526 10 201 0.0 3.2 0.00 0.03 0.03 65 1023.9
20260506233023 11 201 0.0 1.6 0.00 0.03 0.03 66 1023.6
20260506231518 11 201 0.0 1.6 0.00 0.03 0.03 66 1023.6
20260506230024 11 201 0.0 1.6 0.00 0.03 0.03 66 1023.5
20260506224518 11 201 0.0 4.8 0.00 0.03 0.03 65 1023.3
20260506223012 11 206 0.0 4.8 0.00 0.03 0.03 67 1023.4
20260506221511 11 206 1.6 6.4 0.00 0.03 0.03 68 1023.5
20260506220014 11 205 1.6 4.8 0.00 0.03 0.03 70 1023.6
20260506214505 10 205 0.0 6.4 0.00 0.03 0.03 73 1023.5
20260506213003 10 204 0.0 3.2 0.00 0.03 0.03 75 1023.5
20260506211601 10 249 0.0 6.4 0.00 0.03 0.03 77 1023.8
20260506210106 9 231 0.0 1.6 0.00 0.03 0.03 78 1024.0
20260506204607 9 231 0.0 3.2 0.00 0.03 0.03 80 1024.0
20260506203058 8 227 0.0 6.4 0.00 0.03 0.03 80 1024.1
20260506201558 8 223 0.0 6.4 0.00 0.03 0.03 81 1024.2
20260506200057 9 223 1.6 9.7 0.00 0.03 0.03 81 1024.1
20260506194556 9 223 1.6 4.8 0.00 0.03 0.03 83 1024.1
20260506193055 9 223 1.6 6.4 0.00 0.03 0.03 84 1024.1
20260506191552 8 223 3.2 8.0 0.00 0.03 0.03 87 1024.2
20260506190048 8 222 3.2 9.7 0.00 0.03 0.03 88 1024.4
20260506184558 7 228 3.2 9.7 0.00 0.03 0.03 89 1024.6
20260506183046 7 225 1.6 6.4 0.00 0.03 0.03 89 1024.8
20260506181544 7 277 3.2 11.3 0.00 0.03 0.03 90 1024.9
20260506180043 7 257 1.6 8.0 0.00 0.03 0.03 90 1025.1
20260506174542 7 305 3.2 9.7 0.00 0.03 0.03 90 1024.9
20260506173046 7 305 3.2 9.7 0.00 0.03 0.03 91 1024.8
20260506171550 6 305 1.6 9.7 0.00 0.03 0.03 90 1024.9
20260506170038 6 305 0.0 8.0 0.00 0.03 0.03 90 1024.8
20260506164535 6 305 0.0 6.4 0.00 0.03 0.03 90 1024.7
20260506163035 6 304 1.6 8.0 0.00 0.03 0.03 90 1024.6
20260506161533 6 317 1.6 11.3 0.00 0.03 0.03 90 1024.0
20260506160031 6 284 0.0 6.4 0.00 0.03 0.03 90 1024.2
20260506154529 6 298 0.0 12.9 0.00 0.03 0.03 90 1023.9
20260506153027 6 261 0.0 4.8 0.00 0.03 0.03 90 1023.9
20260506151528 6 262 1.6 11.3 0.00 0.03 0.03 90 1023.6
20260506150027 6 262 0.0 6.4 0.00 0.03 0.03 90 1023.5
20260506144524 6 262 0.0 6.4 0.00 0.03 0.03 90 1023.5
20260506143024 5 262 1.6 9.7 0.00 0.03 0.03 89 1023.5
20260506141523 5 262 0.0 6.4 0.00 0.03 0.03 89 1023.6
20260506140027 5 262 0.0 6.4 0.00 0.03 0.03 89 1023.6
20260506134521 5 262 0.0 4.8 0.00 0.03 0.03 89 1023.5
20260506133027 5 262 0.0 3.2 0.00 0.03 0.03 89 1023.4
20260506131519 5 262 0.0 1.6 0.00 0.03 0.03 89 1023.3
20260506130018 5 262 0.0 1.6 0.00 0.03 0.03 89 1023.1